Weather History for Owensboro, KY

Change the Weather History Date:

Friday, July 5, 2013

  Actual Average Record
Temperature  
Mean Temperature 72 °F -  
Max Temperature 81 °F 88 °F 102 °F (2012)
Min Temperature 64 °F 65 °F 51 °F (1968)
Cooling Degree Days 8    
Growing Degree Days 22 (Base 50)    
Moisture  
Dew Point 68 °F    
Average Humidity 92    
Maximum Humidity 100    
Minimum Humidity 67    
Precipitation  
Precipitation 0.01 in - - ()
Sea Level Pressure  
Sea Level Pressure 30.08 in    
Wind  
Wind Speed 3 mph (ESE)    
Max Wind Speed 14 mph    
Max Gust Speed -    
Visibility 9 miles    
Events Rain    
Averages and records for this station are not official NWS values.
T = Trace of Precipitation, MM = Missing Value Source: NWS Daily Summary

Daily Weather History Graph

Daily Weather History Graph

Search for Another Location

Airport:

Trip Planner

Search our weather history database for the weather conditions in past years. The results will help you decide how hot, cold, wet, or windy it might be!

Date:

Astronomy

Jul. 05, 2013 Rise Set
Actual Time 5:32 AM CDT 8:13 PM CDT
Civil Twilight 5:01 AM CDT 8:44 PM CDT
Nautical Twilight 4:23 AM CDT 9:23 PM CDT
Astronomical Twilight 3:39 AM CDT 10:06 PM CDT
Moon 3:30 AM CDT (7/5) 6:09 PM CDT (7/5)
Length of Visible Light 15h 42m
Length of Day
14h 41m
Waning Crescent, 6% of the Moon is Illuminated
Jul 5
Waning Crescent
Jul 8
New
Jul 15
First Quarter
Jul 22
Full
Jul 29
Last Quarter

Hourly Weather History & Observations

Time (CDT) Temp. Heat Index Dew Point Humidity Pressure Visibility Wind Dir Wind Speed Gust Speed Precip Events Conditions
12:20 AM 66.2 °F - 66.2 °F 100% 30.08 in 10.0 mi East 5.8 mph - N/A   Mostly Cloudy
12:56 AM 66.9 °F - 66.9 °F 100% 30.07 in 10.0 mi East 4.6 mph - N/A   Mostly Cloudy
1:17 AM 66.2 °F - 66.2 °F 100% 30.08 in 10.0 mi ENE 4.6 mph - N/A   Overcast
1:28 AM 66.2 °F - 66.2 °F 100% 30.08 in 10.0 mi Calm Calm - N/A   Mostly Cloudy
1:56 AM 65.8 °F - 65.8 °F 100% 30.06 in 10.0 mi Calm Calm - N/A   Partly Cloudy
2:56 AM 64.9 °F - 64.9 °F 100% 30.06 in 10.0 mi Calm Calm - N/A   Clear
3:56 AM 64.9 °F - 64.9 °F 100% 30.06 in 10.0 mi Calm Calm - N/A   Mostly Cloudy
4:11 AM 64.4 °F - 64.4 °F 100% 30.07 in 10.0 mi Calm Calm - N/A   Mostly Cloudy
4:56 AM 64.9 °F - 64.9 °F 100% 30.06 in 10.0 mi Calm Calm - N/A   Overcast
5:56 AM 65.8 °F - 65.8 °F 100% 30.08 in 7.0 mi Calm Calm - N/A   Overcast
6:56 AM 66.9 °F - 66.9 °F 100% 30.09 in 7.0 mi Calm Calm - N/A   Overcast
7:32 AM 66.2 °F - 66.2 °F 100% 30.10 in 7.0 mi Calm Calm - N/A   Overcast
7:56 AM 68.0 °F - 68.0 °F 100% 30.10 in 7.0 mi Calm Calm - N/A   Overcast
8:56 AM 68.9 °F - 68.9 °F 100% 30.12 in 7.0 mi Calm Calm - N/A   Overcast
9:56 AM 70.9 °F - 68.9 °F 93% 30.12 in 7.0 mi Calm Calm - N/A   Overcast
10:56 AM 70.9 °F - 70.0 °F 97% 30.12 in 4.0 mi Calm Calm - N/A   Overcast
11:24 AM 73.4 °F - 69.8 °F 88% 30.12 in 7.0 mi Calm Calm - N/A   Overcast
11:56 AM 73.9 °F - 68.9 °F 84% 30.11 in 7.0 mi Calm Calm - N/A   Overcast
12:56 PM 74.8 °F - 68.9 °F 82% 30.11 in 7.0 mi Variable 4.6 mph - N/A   Overcast
1:56 PM 77.9 °F - 70.0 °F 76% 30.09 in 7.0 mi Calm Calm - N/A   Overcast
2:56 PM 81.0 °F 84.1 °F 68.9 °F 67% 30.08 in 10.0 mi South 4.6 mph - N/A   Mostly Cloudy
3:13 PM 80.6 °F 83.9 °F 69.8 °F 70% 30.09 in 10.0 mi Calm Calm - N/A   Overcast
3:56 PM 79.9 °F - 68.9 °F 69% 30.07 in 10.0 mi Calm Calm - N/A   Mostly Cloudy
4:56 PM 79.9 °F - 70.0 °F 72% 30.07 in 10.0 mi Calm Calm - N/A   Mostly Cloudy
5:56 PM 79.0 °F - 70.9 °F 76% 30.05 in 10.0 mi NE 4.6 mph - 0.00 in   Scattered Clouds
6:56 PM 74.8 °F - 68.0 °F 79% 30.06 in 10.0 mi East 6.9 mph - 0.00 in   Mostly Cloudy
7:56 PM 72.9 °F - 68.9 °F 87% 30.05 in 10.0 mi East 6.9 mph - 0.00 in   Clear
8:56 PM 72.0 °F - 72.0 °F 100% 30.06 in 10.0 mi ESE 8.1 mph - N/A   Partly Cloudy
9:56 PM 72.9 °F - 70.9 °F 93% 30.09 in 10.0 mi SE 10.4 mph - N/A   Mostly Cloudy
10:35 PM 71.6 °F - 71.6 °F 100% 30.10 in 10.0 mi SE 12.7 mph - 0.00 in Rain Light Rain
10:56 PM 70.9 °F - 70.9 °F 100% 30.10 in 10.0 mi SE 8.1 mph - 0.00 in   Scattered Clouds
11:24 PM 71.6 °F - 71.6 °F 100% 30.10 in 10.0 mi ESE 6.9 mph - N/A   Partly Cloudy
11:56 PM 68.9 °F - 68.9 °F 100% 30.10 in 5.0 mi SE 13.8 mph - 0.01 in Rain Rain